Theta_e
305 305 304 303 302 302 301 301 300 300 299 299 299 299 299 300 300 301 301 302 303 304 306 307 308 308 308 309 309 309 309 310 311 311 312 313 313 313 313 313 315 316 316 319 324 326 326 327 328 329 328 328 327 328 328 327 327 328 327 327 327 325 325 326 326 327 326 324 325 327 328 327 328 328 328 328 326 324 322 321 320 321 322 322 322
305 304 303 303 302 301 300 300 299 298 298 298 298 299 299 300 301 301 302 303 304 305 306 306 307 307 308 308 309 309 309 309 310 311 311 312 312 313 313 313 314 316 316 316 319 324 327 327 328 329 329 328 328 328 328 328 327 329 328 327 327 326 324 326 326 326 326 324 324 327 328 328 328 327 327 327 326 324 322 322 321 320 321 321 321
304 304 303 302 301 301 300 298 297 297 297 297 298 298 299 300 301 302 303 304 304 305 306 306 307 307 307 308 308 309 309 309 309 310 311 312 313 313 313 313 313 314 315 316 317 320 325 328 329 329 329 329 328 328 328 328 328 329 328 327 327 327 325 325 326 326 326 324 323 324 326 327 327 326 327 327 325 323 322 322 322 321 321 321 320
304 303 302 301 301 300 298 296 295 295 296 298 298 298 299 300 301 302 303 303 304 305 305 306 306 306 307 307 308 308 309 309 309 309 310 312 313 314 314 314 314 314 314 315 317 320 323 326 328 330 329 329 329 328 328 328 328 329 328 327 327 327 325 325 326 327 326 325 323 322 324 327 327 325 326 326 323 321 321 321 321 320 321 320 319
304 302 301 300 299 298 296 294 295 296 297 298 299 299 300 301 302 302 302 303 303 303 304 305 305 305 306 307 307 308 308 309 309 309 309 310 312 314 314 314 314 314 314 314 315 319 322 323 326 329 329 328 329 329 327 327 328 328 329 328 327 326 325 325 327 328 327 326 325 323 323 325 325 325 326 325 323 321 319 319 319 320 320 320 318
303 301 300 299 297 296 294 294 295 296 297 298 299 300 301 301 301 301 301 301 301 302 302 304 304 305 305 306 306 306 307 308 309 309 309 309 310 312 313 314 314 315 315 314 313 316 320 322 323 327 329 329 328 329 327 327 327 328 328 328 327 327 326 327 328 328 328 327 326 325 324 323 324 325 325 325 324 322 320 318 317 317 318 318 317
302 300 299 298 296 295 294 295 296 297 298 299 300 301 301 301 301 301 300 300 300 301 301 302 303 304 304 305 306 306 306 307 308 309 309 309 309 310 311 312 314 315 315 315 313 313 316 321 323 325 328 329 328 328 329 328 327 327 327 328 328 327 327 327 327 328 328 328 326 326 325 324 323 324 324 323 323 323 323 321 318 317 317 317 316
301 299 298 297 295 294 294 295 297 298 300 300 301 301 301 300 300 300 300 300 300 300 300 300 301 301 302 304 306 306 305 306 307 308 309 309 309 310 311 312 313 314 315 316 315 313 312 317 322 323 326 329 329 328 328 328 327 326 327 328 327 327 327 326 327 328 328 328 327 326 325 324 324 324 324 322 321 321 322 322 322 321 319 318 316
300 299 297 296 294 294 294 295 297 299 300 300 300 300 300 300 299 299 299 299 299 299 299 299 299 300 301 302 304 305 305 305 306 308 309 309 309 310 311 312 312 313 315 316 317 315 311 311 318 322 324 327 328 328 328 328 328 327 327 327 327 327 326 326 326 328 328 327 327 326 323 324 325 324 324 323 323 323 322 321 320 320 320 318 316
299 298 296 295 294 293 294 297 299 300 300 300 299 299 299 299 299 299 299 299 299 299 299 298 299 299 300 300 302 303 304 306 307 308 309 309 309 309 311 313 312 312 314 316 317 316 312 308 312 319 322 324 327 328 329 328 328 327 327 327 327 326 326 325 326 327 327 327 327 326 324 323 324 325 324 324 324 324 323 321 319 319 318 317 314
298 297 296 294 293 294 297 299 300 300 299 299 298 298 298 298 298 298 298 298 298 298 298 298 298 299 299 300 300 301 303 305 306 307 308 308 308 309 311 313 313 312 314 316 316 316 313 308 309 316 321 323 325 327 328 329 328 328 327 326 326 326 325 325 326 326 327 327 327 327 325 325 325 325 324 324 324 324 324 323 321 321 319 318 316
298 297 295 293 294 296 299 300 300 299 298 298 298 298 298 298 298 298 298 298 298 297 297 297 298 298 298 299 299 300 303 305 306 306 306 307 308 308 310 313 314 313 314 316 316 316 314 310 311 316 320 322 325 326 328 329 328 328 327 326 326 326 326 324 325 326 326 327 327 326 326 326 326 326 325 324 324 324 323 323 322 322 321 319 316
297 296 294 293 294 298 299 299 299 298 298 298 298 298 298 298 298 298 298 297 297 297 297 297 297 297 297 298 298 299 302 305 306 306 305 305 307 308 309 311 314 315 314 315 316 316 314 312 312 315 319 322 325 326 327 328 328 327 327 327 327 326 326 325 324 325 326 327 327 327 327 327 327 326 326 325 324 323 322 322 321 320 319 316 314
296 295 293 293 296 298 299 298 298 297 297 298 298 298 298 298 298 298 297 297 296 296 296 296 296 296 297 297 298 298 301 303 305 306 306 305 306 308 309 310 312 315 315 315 315 315 313 312 311 313 319 323 324 326 327 327 327 327 327 327 326 326 325 325 324 325 325 326 326 327 327 327 328 327 326 325 324 323 323 323 321 317 315 313 311
296 294 292 294 297 298 298 298 298 297 297 297 297 298 298 298 298 297 296 295 295 295 296 296 296 296 297 297 298 298 300 303 305 305 305 305 307 308 309 310 311 314 315 314 314 313 312 313 312 313 319 323 324 325 327 327 326 327 327 326 325 325 325 324 324 325 325 325 326 326 326 327 327 326 325 325 325 324 323 322 320 317 313 311 308
295 292 293 296 298 297 296 297 297 296 296 297 297 297 298 298 297 296 295 295 295 295 295 295 295 296 297 297 298 298 300 303 304 305 306 307 308 308 309 310 311 313 314 314 314 314 315 315 314 313 316 322 324 325 326 327 326 326 326 325 325 325 324 324 324 324 325 325 325 325 325 325 325 323 322 323 323 322 320 318 316 314 311 309 306
294 292 295 298 297 295 296 297 296 295 295 296 296 297 297 297 296 295 294 294 294 295 295 295 296 296 297 297 298 299 301 304 304 305 307 308 308 308 309 310 311 313 314 314 315 316 316 316 315 313 312 317 323 325 325 326 326 325 325 324 324 323 324 323 323 324 324 325 324 324 324 324 323 322 321 322 322 320 318 316 313 311 309 307 305
293 293 296 298 296 295 296 296 295 295 295 295 296 297 296 296 296 296 295 295 295 295 296 296 297 298 298 298 299 300 302 305 306 306 307 308 309 309 309 310 312 313 313 314 315 316 316 316 317 315 313 315 321 324 325 326 326 325 325 323 322 323 324 323 324 324 323 323 323 323 322 321 321 321 321 320 318 317 316 315 314 311 308 305 304
292 293 297 297 295 295 296 296 295 295 294 295 296 296 296 296 296 296 296 295 295 296 296 297 298 300 300 300 301 302 304 306 307 308 308 309 310 311 310 310 312 313 313 314 315 316 316 317 317 317 315 315 318 321 324 325 325 325 324 323 322 323 323 323 324 324 324 323 323 322 321 320 319 318 317 315 313 312 311 310 308 307 305 302 300
292 293 297 297 295 295 296 296 296 295 294 295 295 295 296 296 296 296 295 295 295 296 297 297 299 301 302 301 302 304 305 306 308 309 310 311 311 311 310 311 312 313 313 314 315 316 317 317 318 318 318 317 318 320 323 324 324 324 324 323 323 323 323 322 323 324 324 324 323 321 321 319 316 314 313 310 309 308 306 303 301 300 298 297 295
292 293 296 297 295 295 295 295 295 295 295 295 295 295 296 296 296 295 295 295 295 296 298 298 300 302 303 302 303 306 307 308 309 310 311 312 311 311 310 311 313 313 314 315 316 316 317 317 318 319 319 319 321 322 323 324 324 324 323 322 323 324 323 322 322 322 322 323 322 320 319 317 313 311 310 308 306 305 304 302 299 296 294 294 293
292 292 294 296 296 295 295 295 296 295 295 295 295 295 296 296 295 295 294 294 295 296 298 299 300 302 304 304 305 307 308 309 310 311 312 312 312 311 312 313 314 314 315 316 317 317 317 317 317 319 320 320 321 322 323 323 323 322 322 322 322 323 323 323 322 321 320 322 321 319 315 313 312 309 307 305 304 303 301 299 297 294 294 294 293
292 292 293 295 295 296 296 295 295 295 295 295 295 295 295 295 295 294 294 294 294 295 297 300 301 302 303 305 307 309 310 311 311 312 313 313 313 312 313 314 315 315 315 316 317 317 317 317 318 319 319 319 320 321 322 322 322 322 321 322 321 322 322 321 321 320 321 321 320 316 313 311 309 307 305 303 301 299 297 295 294 294 294 293 292
293 292 294 295 295 296 295 295 295 295 295 295 295 295 294 295 295 294 293 294 294 294 296 298 301 302 303 305 307 309 311 311 311 312 313 313 313 313 313 313 314 316 316 316 316 316 316 316 317 318 318 318 320 322 322 321 321 321 321 321 320 319 318 318 318 319 319 318 317 314 311 308 306 305 303 301 298 295 294 294 294 293 293 292 292
293 293 294 295 295 295 295 295 295 295 295 295 295 294 294 294 293 293 293 294 294 293 294 296 299 301 302 303 305 308 310 310 310 311 311 312 312 312 312 313 314 315 316 316 316 316 316 316 317 316 316 318 320 321 320 319 319 320 320 321 320 318 316 314 314 316 317 316 314 312 308 305 304 302 300 297 295 294 294 294 293 292 292 291 291
293 293 294 295 295 295 295 295 295 295 295 295 295 294 293 293 292 292 292 293 294 293 293 295 297 299 300 301 303 305 307 308 310 310 310 311 312 313 313 314 314 315 316 315 315 316 316 315 315 313 315 318 320 320 319 319 318 318 319 318 317 316 315 313 313 315 315 313 310 307 304 302 300 298 295 294 294 294 293 293 292 292 291 291 291
293 294 294 294 295 294 295 295 295 295 295 295 295 294 293 293 292 291 291 292 293 293 293 294 295 297 298 299 300 301 303 305 308 310 311 312 313 313 314 314 314 315 315 315 315 315 314 313 312 313 316 318 318 317 317 317 315 315 315 314 313 313 314 315 315 314 312 309 306 304 301 298 295 294 294 294 293 292 292 292 292 291 291 290 290
293 293 294 294 294 294 294 295 294 295 295 295 295 294 293 292 291 291 290 291 291 292 293 294 294 295 296 297 298 299 300 302 305 308 311 312 313 314 315 314 314 315 314 314 314 313 312 311 311 312 314 315 313 311 311 312 312 312 312 311 311 311 312 312 312 310 308 307 304 301 298 295 294 294 293 293 292 291 291 290 291 290 290 289 289
293 293 294 294 294 294 294 294 294 294 295 295 295 294 293 292 291 291 291 291 291 291 292 293 294 294 296 297 297 298 299 301 302 305 309 312 314 315 315 314 314 314 314 313 313 311 310 309 309 309 310 310 309 309 309 309 309 309 310 311 310 309 309 308 307 306 305 304 301 298 296 294 294 293 292 292 291 291 290 290 290 290 289 289 289
294 294 294 294 294 294 294 294 294 294 295 295 295 294 294 293 292 291 291 291 292 292 292 292 293 294 295 296 297 298 300 301 302 303 306 309 312 314 314 314 314 314 313 313 313 311 308 307 307 308 309 309 309 309 309 308 308 308 308 309 308 306 305 304 304 303 301 299 297 296 295 294 293 292 292 291 291 290 290 289 289 289 289 289 289
294 294 294 294 294 294 294 294 294 294 294 295 294 294 293 293 292 292 291 292 292 292 292 292 293 294 295 296 297 298 299 300 301 302 304 306 308 310 312 312 312 313 312 311 310 308 307 307 306 306 307 308 308 308 308 307 308 308 307 306 304 302 301 300 299 298 296 295 295 295 294 294 293 292 292 291 291 290 290 289 289 289 289 289 289
295 294 294 294 294 294 294 294 294 293 294 294 294 294 293 293 293 292 292 292 292 292 292 292 293 293 294 295 296 296 297 298 299 300 302 303 305 306 307 307 308 308 308 309 309 306 306 307 307 306 305 306 306 306 305 305 306 306 305 303 301 299 297 297 296 295 294 294 294 294 293 293 292 292 291 291 291 290 290 290 289 289 289 288 288
295 294 294 294 293 293 294 294 293 293 293 294 294 294 293 293 293 293 292 292 292 292 292 292 292 292 293 294 294 295 295 296 297 298 300 301 303 303 303 303 303 303 304 307 308 305 304 306 307 305 304 305 304 303 302 303 304 303 302 299 297 295 294 294 294 294 294 293 293 293 293 292 292 291 291 290 290 290 290 289 289 288 288 288 288
296 295 295 294 294 293 293 293 293 293 293 293 294 294 293 293 292 292 292 292 292 293 292 292 292 292 292 292 293 293 294 294 295 296 297 298 300 301 301 300 300 300 302 305 307 304 302 303 304 303 302 302 302 301 300 301 301 299 297 295 294 293 292 293 293 292 292 292 293 292 292 292 291 291 290 290 290 289 289 289 288 288 288 288 287
297 296 296 295 294 293 293 293 293 293 292 293 293 293 293 293 292 292 292 292 292 292 292 292 292 292 293 293 293 293 293 293 294 294 294 295 296 298 299 299 298 299 301 302 304 305 303 302 302 301 300 300 301 300 299 298 297 295 294 293 292 292 292 292 291 292 292 292 292 292 292 291 291 290 290 290 289 289 289 288 288 288 288 287 287
297 297 296 295 294 294 293 293 293 292 292 292 292 293 293 293 292 292 292 292 292 292 292 292 292 293 293 293 293 293 293 293 293 293 293 294 294 296 297 298 298 299 300 298 300 303 303 302 301 301 299 299 299 298 295 294 294 293 293 292 291 291 291 291 291 291 292 292 292 291 290 290 290 290 290 289 289 289 288 288 288 288 287 287 287
297 297 296 295 295 294 294 293 293 292 292 292 292 292 293 293 293 292 291 292 292 292 292 292 293 293 293 293 294 294 294 294 294 294 294 294 295 297 297 298 298 298 297 296 297 299 300 300 299 299 298 297 296 295 294 293 293 292 291 291 290 290 290 290 291 291 291 291 291 290 290 289 289 289 289 289 289 288 288 288 288 288 287 287 287
297 297 297 296 295 294 294 293 293 293 292 292 291 291 292 292 293 292 291 291 291 291 292 292 292 292 293 293 293 294 294 295 295 296 296 296 297 297 297 296 296 296 296 295 296 297 298 298 298 297 297 296 295 294 293 293 292 291 290 290 290 290 290 290 290 291 290 290 290 290 289 289 289 289 289 289 289 288 288 288 288 287 287 287 287
297 297 297 296 296 295 295 294 294 293 293 292 292 291 291 292 292 292 292 291 291 291 291 291 291 291 292 292 293 293 294 294 294 295 295 296 296 296 296 295 295 295 295 295 296 297 297 297 296 295 295 294 293 293 292 291 291 290 290 289 289 290 290 290 290 290 290 290 290 289 289 289 289 288 288 288 288 288 288 288 287 287 287 287 286
298 297 297 296 296 296 295 295 294 294 293 293 292 292 291 291 291 291 291 291 290 290 291 291 291 290 290 291 292 293 293 293 293 293 294 294 294 294 295 294 294 294 294 295 295 296 296 295 294 293 292 292 292 291 291 291 290 290 289 289 289 289 289 290 290 289 289 289 289 289 289 289 288 288 288 288 288 288 288 287 287 287 287 286 286
298 297 297 297 296 296 296 296 295 295 294 293 293 292 292 292 292 291 291 291 290 290 290 290 291 290 290 290 291 292 292 292 292 292 292 292 293 293 293 293 293 293 293 293 293 294 294 294 293 292 291 291 291 291 291 290 290 290 289 289 289 289 289 289 289 289 289 289 289 289 289 288 288 288 288 288 288 288 288 287 287 287 286 286 286
299 298 297 297 297 297 297 296 296 295 295 294 294 293 292 292 292 292 292 291 291 290 289 289 290 290 291 291 291 291 291 291 291 291 291 291 291 291 291 291 292 292 292 292 292 293 293 293 293 292 292 291 291 291 291 290 290 290 289 289 289 289 289 289 289 289 289 289 289 289 288 288 288 288 288 288 288 288 287 287 287 286 286 286 286
300 299 298 298 298 298 298 297 296 296 295 295 294 294 293 292 292 292 292 292 292 291 290 289 289 289 289 290 290 291 291 291 291 290 290 290 290 291 291 291 291 291 292 292 292 293 292 292 292 292 291 291 291 291 290 290 290 290 290 290 290 291 291 290 289 289 288 288 288 288 288 288 288 288 288 288 287 287 287 287 286 286 286 286 285
300 300 300 300 299 299 299 299 298 296 296 295 295 294 294 293 293 292 292 292 292 292 291 290 289 289 289 289 289 289 290 290 290 290 290 290 290 291 291 291 291 291 291 291 291 291 291 291 291 291 291 291 291 291 291 291 291 292 292 292 291 291 290 290 289 289 289 288 288 288 288 288 288 287 288 287 287 287 287 286 286 286 285 285 285
301 301 301 301 300 299 300 300 299 298 297 296 295 295 294 294 294 293 292 292 292 292 292 292 291 290 289 288 288 288 289 289 289 289 290 290 290 291 291 291 291 291 291 291 291 291 291 290 290 290 290 290 291 291 292 292 292 292 292 291 290 290 289 289 288 288 288 288 288 288 288 288 288 287 287 287 287 286 286 286 286 286 285 285 285
301 301 300 301 301 301 301 301 300 299 298 297 296 295 295 294 294 294 293 292 292 292 292 293 293 292 290 289 289 288 288 288 288 289 289 289 290 290 291 291 291 291 291 291 291 291 291 291 291 290 290 290 290 290 290 290 290 289 289 288 288 288 288 288 288 288 288 288 288 288 288 288 287 287 287 286 286 286 286 286 286 285 285 285 285
300 300 300 300 300 301 301 300 300 299 299 298 297 296 296 295 295 294 294 293 293 292 292 292 293 293 292 291 290 289 289 288 288 288 288 288 289 289 290 290 291 292 292 292 291 291 291 291 291 291 291 291 290 290 289 289 288 288 288 288 288 288 288 288 288 288 288 287 287 288 287 287 287 287 287 286 286 286 286 286 285 285 285 285 284
300 300 300 300 300 300 300 300 299 299 299 298 298 297 297 296 295 295 294 294 293 293 292 292 292 292 292 292 292 292 291 290 289 289 288 288 288 288 289 289 290 290 291 292 292 291 291 291 291 291 291 291 291 290 289 289 289 288 288 288 288 288 288 288 288 287 287 287 287 287 287 287 287 287 286 286 286 286 286 285 285 285 285 285 284
300 300 300 300 300 300 300 300 299 299 299 299 298 298 297 297 296 295 295 294 294 294 293 293 293 292 292 292 292 293 293 292 292 291 290 289 289 288 288 288 289 289 290 291 291 291 291 292 292 291 291 291 291 291 290 289 289 288 288 288 288 288 288 288 288 287 287 287 287 287 287 286 286 286 286 286 286 286 285 285 285 285 285 284 284
300 300 300 300 300 300 300 300 300 299 299 299 298 297 297 296 296 296 295 295 294 294 294 294 294 293 293 292 292 292 292 292 292 292 291 291 290 289 289 289 288 288 289 289 290 290 291 291 291 291 291 291 291 291 291 290 289 289 288 288 287 288 288 288 287 287 287 287 287 287 287 287 286 286 286 286 286 285 285 285 285 285 284 284 284
299 300 300 300 300 300 300 300 299 299 299 299 298 297 297 296 296 296 296 296 295 295 294 294 294 294 293 293 293 293 292 292 292 292 292 291 291 290 290 289 289 289 289 288 289 289 289 289 290 290 291 291 290 290 291 291 290 289 289 288 288 288 287 287 287 287 287 287 287 287 286 286 286 286 286 286 285 285 285 285 285 285 284 284 284
Wind_Speed
19 19 19 20 22 24 26 27 29 29 30 30 30 30 31 31 31 31 32 32 32 32 31 30 29 29 30 30 29 28 28 29 31 30 26 27 33 37 41 43 41 41 44 45 42 43 45 46 48 51 51 47 45 44 45 46 41 37 39 39 37 36 34 31 27 24 25 31 35 35 34 33 33 31 29 29 32 32 31 29 28 27 26 25 24
19 19 19 21 23 25 27 28 29 30 30 31 31 31 31 31 31 32 32 32 32 32 32 31 31 31 31 32 31 30 29 29 30 32 29 26 30 35 38 43 44 42 43 47 47 44 43 45 47 48 48 48 47 44 42 44 41 36 38 40 38 37 36 33 30 31 32 32 33 35 35 34 34 32 30 31 33 34 32 31 30 28 27 26 25
19 19 20 22 24 26 28 28 29 30 30 30 30 31 31 31 31 32 31 32 32 32 32 32 32 32 33 34 33 32 31 31 31 32 31 27 27 31 34 38 43 45 45 46 48 46 43 44 46 46 46 49 50 47 44 44 42 36 37 41 38 37 37 34 34 36 35 34 33 35 36 36 35 33 32 32 34 34 33 33 32 29 28 27 26
18 19 21 23 25 26 27 28 29 29 28 28 29 30 30 29 30 31 31 32 32 32 32 32 32 33 34 35 36 35 34 34 33 33 33 31 28 28 30 34 38 43 47 47 47 47 45 45 45 46 48 51 51 50 47 45 43 38 39 42 39 38 37 35 36 38 36 35 34 34 36 37 35 33 32 34 35 35 34 33 31 30 29 28 27
18 20 21 23 24 26 26 27 28 27 26 26 27 27 27 27 28 28 29 31 32 32 33 33 32 33 34 36 37 37 37 36 35 35 35 35 33 30 29 32 35 39 44 48 48 47 45 45 46 46 48 51 52 52 50 46 43 39 39 40 38 39 37 33 35 37 36 36 35 33 34 35 35 33 33 35 37 36 35 33 31 30 30 29 27
18 20 21 22 24 25 26 27 26 25 25 26 25 25 26 27 27 27 28 29 31 31 32 32 33 34 35 36 37 38 38 37 37 36 35 36 37 36 34 33 34 36 40 45 50 49 45 45 47 47 49 52 53 53 52 48 45 41 40 40 39 39 37 34 35 38 38 38 38 36 36 35 35 35 35 37 38 38 36 34 32 31 30 29 27
18 20 21 22 24 26 27 26 25 24 24 24 24 25 26 27 27 28 30 29 29 30 31 32 34 35 36 37 38 38 39 39 39 38 37 36 37 39 40 38 35 35 37 41 47 51 49 45 46 48 51 53 55 54 51 48 47 46 45 43 42 41 40 38 38 39 39 39 39 39 38 37 36 36 37 38 38 38 38 37 35 33 31 29 28
18 19 21 23 25 26 27 26 24 23 23 22 24 25 26 28 29 30 30 29 27 28 29 31 32 34 36 37 38 39 40 40 40 40 39 38 36 37 39 39 38 37 37 38 41 48 52 49 46 48 51 53 55 55 53 51 49 49 48 45 43 43 42 41 41 41 41 41 40 39 39 38 37 37 39 40 41 40 40 39 37 35 33 31 29
17 19 21 24 25 26 28 27 24 23 23 23 26 27 28 30 30 30 29 28 27 28 29 30 31 32 35 37 38 40 41 42 43 42 41 40 37 35 36 38 39 40 38 38 40 44 50 53 50 48 50 52 53 54 54 54 52 50 48 45 44 44 43 42 42 42 42 41 40 39 40 40 40 41 41 42 43 42 41 39 36 34 32 30 28
17 19 22 24 26 27 27 26 23 21 22 25 28 30 31 31 31 31 30 28 29 30 31 31 31 33 35 37 38 40 42 44 45 44 42 42 38 34 35 37 40 41 39 39 41 42 46 53 53 48 48 51 52 53 54 54 52 51 48 45 45 45 44 43 43 43 43 43 42 42 42 42 41 42 42 42 43 42 42 41 39 35 32 30 28
17 20 23 25 26 26 24 23 21 21 22 25 28 31 33 33 33 34 34 33 32 32 32 33 34 35 35 36 36 39 43 45 46 45 44 43 40 36 35 36 39 41 39 38 41 42 43 49 52 49 48 50 51 53 54 54 53 51 48 46 45 45 45 44 44 44 43 44 45 45 44 42 41 42 44 44 43 42 42 42 41 38 35 33 31
18 22 24 25 25 23 20 21 21 22 25 29 33 36 36 36 35 35 36 35 33 31 33 35 35 34 35 36 36 39 43 45 45 45 44 43 42 39 38 37 37 40 40 39 41 43 43 46 49 48 48 49 51 52 54 54 53 50 47 45 45 44 43 44 45 44 43 43 43 43 43 43 43 46 48 47 46 44 43 42 41 39 37 34 32
20 23 23 24 23 20 20 24 24 25 29 33 37 38 37 36 35 34 35 34 32 32 35 36 35 34 35 37 38 40 43 44 44 44 44 43 41 39 39 40 39 39 41 40 41 43 44 45 48 49 49 49 50 51 53 54 53 50 47 46 45 43 42 43 43 44 44 42 40 40 41 42 44 47 48 48 47 45 41 40 41 38 35 32 30
21 22 23 22 21 20 23 26 25 26 30 34 35 36 35 35 36 35 35 34 34 36 38 38 37 36 36 37 38 39 41 42 42 43 43 43 40 37 39 42 42 40 41 41 43 45 43 43 48 51 50 49 50 51 53 55 54 52 50 47 44 42 41 41 40 41 42 40 37 37 38 40 44 45 45 46 45 40 36 39 41 37 33 29 26
20 21 21 19 18 21 24 24 22 25 31 34 35 35 35 36 38 37 36 36 37 39 40 39 38 37 36 35 36 38 38 38 40 42 43 42 39 36 38 43 44 42 40 41 44 44 42 42 47 51 50 49 50 51 52 54 53 51 49 47 44 40 40 40 39 39 38 37 37 36 36 40 44 45 44 44 41 36 34 36 36 33 30 27 24
19 19 17 15 16 20 21 20 22 27 32 35 36 36 37 38 39 37 36 37 39 40 41 40 38 37 35 34 35 37 36 35 37 40 41 39 36 36 38 43 45 43 40 41 43 42 41 43 48 50 50 49 48 49 51 53 52 50 47 45 42 39 38 39 40 39 36 35 36 36 36 39 43 43 42 39 36 34 33 31 29 28 27 25 24
18 17 14 13 15 19 19 20 23 29 35 38 38 38 38 39 39 38 37 40 41 41 42 42 39 37 36 34 34 36 34 32 34 36 36 35 33 34 39 42 45 44 41 41 42 41 42 45 46 47 48 48 47 48 51 52 51 49 46 44 41 39 39 40 41 38 36 36 35 34 36 38 39 39 36 32 30 31 31 30 29 28 26 25 24
16 15 12 12 15 18 19 21 26 32 38 40 40 39 38 39 39 39 39 40 39 39 39 40 40 38 36 35 34 33 32 29 30 33 34 33 31 33 38 42 44 44 43 42 42 42 43 44 42 42 45 47 47 47 50 53 52 50 48 45 41 40 40 41 41 39 38 37 35 34 35 36 34 33 31 27 26 27 27 26 26 26 25 24 22
15 14 11 12 16 17 18 22 28 34 39 42 41 39 38 39 39 39 38 36 35 36 36 38 39 37 33 31 30 30 30 29 30 33 34 33 32 33 37 41 43 43 43 43 43 44 43 41 39 39 42 45 47 47 49 52 53 52 50 45 41 40 41 42 41 40 39 37 37 37 36 32 30 29 28 26 25 25 23 21 21 21 22 21 19
14 12 11 12 16 17 19 23 28 33 39 43 43 39 37 38 38 37 35 32 31 33 34 36 36 31 27 26 27 28 29 30 32 33 33 32 31 34 38 42 43 43 44 44 44 43 42 39 38 39 41 44 46 47 49 51 52 52 50 46 42 42 42 41 40 39 39 38 38 37 34 30 28 28 28 27 27 26 26 23 20 19 18 17 17
14 12 11 13 15 17 20 24 28 32 36 42 44 40 36 35 35 34 32 30 28 29 31 32 30 24 19 21 24 24 27 30 32 31 30 28 29 33 38 41 41 42 43 43 43 42 40 39 40 40 41 43 45 47 50 50 50 49 47 44 40 38 38 38 39 39 39 38 37 34 31 31 30 29 28 28 28 28 27 24 21 19 18 18 17
13 11 11 12 14 17 21 25 28 31 34 40 44 41 35 33 33 31 30 28 25 25 27 26 24 19 15 16 19 20 23 28 28 26 26 27 31 35 37 38 40 42 43 43 42 41 40 40 40 40 41 44 46 47 48 48 46 46 44 40 37 35 36 39 41 41 39 38 37 35 34 33 32 30 29 29 28 26 23 20 19 18 19 19 17
13 11 11 12 14 17 21 24 27 30 33 38 43 40 34 33 32 30 29 27 23 22 23 22 19 16 15 16 18 18 19 22 22 21 22 26 30 32 32 34 36 39 42 42 40 40 41 39 38 39 42 45 46 45 45 45 44 43 40 37 35 36 39 42 43 42 41 39 39 38 35 33 32 31 30 28 25 22 20 19 19 18 17 16 15
13 11 11 12 15 17 20 23 26 29 31 35 41 38 33 33 33 30 28 25 21 19 19 18 17 16 15 16 18 19 20 22 23 22 22 25 27 28 28 28 31 35 37 38 38 39 40 38 38 41 44 45 44 43 42 42 41 39 36 35 37 39 42 44 45 44 43 43 41 37 34 33 32 31 28 25 23 22 21 20 19 17 15 14 13
13 12 12 13 15 17 19 21 24 28 29 33 38 36 33 34 34 31 28 23 18 17 16 14 14 14 15 15 16 19 21 23 24 25 26 26 26 27 27 27 30 32 33 32 32 34 35 37 39 43 45 45 43 41 39 36 35 35 35 36 38 41 44 46 47 46 45 43 39 37 36 34 31 27 25 24 23 22 21 19 18 16 15 14 13
13 12 12 14 15 17 19 20 22 25 26 30 34 33 31 33 33 31 30 24 17 14 14 11 10 10 11 12 13 15 18 19 21 23 25 25 26 27 26 27 31 32 29 27 27 30 34 38 40 42 44 43 42 42 40 37 35 34 35 37 39 42 44 45 45 44 43 41 39 38 36 33 28 26 25 23 22 20 18 17 17 17 16 15 14
12 11 12 14 15 17 18 19 22 24 25 27 32 31 29 31 31 30 30 28 20 14 12 10 8 7 7 8 9 11 15 17 21 23 25 25 27 27 25 28 31 31 28 27 28 32 36 38 39 41 43 42 42 42 42 40 37 37 39 41 42 43 43 43 42 41 40 40 39 37 34 31 29 27 25 23 21 19 18 17 17 17 17 15 14
11 11 11 13 15 16 18 18 20 23 23 25 30 30 27 29 30 28 27 26 21 16 13 10 7 5 4 5 8 11 14 17 21 25 27 27 27 26 25 28 31 30 29 30 32 35 36 36 37 39 41 41 39 38 39 40 41 42 45 46 46 45 43 42 40 40 39 38 36 34 33 31 29 27 25 24 22 21 20 19 17 17 17 16 14
11 10 11 13 14 15 17 18 20 22 21 22 27 28 24 25 28 28 25 23 20 17 14 12 9 6 2 4 8 12 16 18 21 24 26 26 26 26 26 29 30 29 29 31 32 33 35 35 35 37 38 39 40 40 42 44 46 47 48 46 45 43 42 40 39 38 36 35 34 33 32 31 29 27 26 25 24 23 22 20 18 18 18 16 15
11 11 11 13 13 14 16 18 19 21 20 21 25 27 24 23 25 27 26 23 19 16 15 13 9 5 2 2 6 10 13 16 18 21 23 24 24 25 26 28 30 29 29 30 31 32 34 36 37 38 40 41 43 44 45 46 47 47 45 43 41 40 39 38 37 35 34 32 31 30 30 30 29 29 28 27 26 24 23 21 19 18 17 16 14
12 12 12 13 14 14 16 18 19 20 19 19 23 27 27 23 22 24 24 23 21 18 16 15 13 9 7 6 6 8 10 12 15 17 20 22 24 26 27 28 29 30 30 31 32 35 38 40 41 42 43 44 45 45 46 46 45 44 43 42 41 40 40 38 35 33 32 30 29 29 29 29 29 29 28 27 26 25 23 21 19 18 16 14 12
13 13 14 14 15 15 16 18 19 20 19 19 21 26 28 27 24 24 23 23 23 21 19 19 17 15 12 10 9 10 11 12 14 16 18 20 23 25 27 29 30 32 34 35 37 41 43 43 42 42 42 44 45 45 46 46 45 44 44 43 42 41 38 36 34 32 31 30 30 30 30 29 29 28 27 25 25 24 23 21 19 17 15 12 10
13 14 15 15 16 17 17 18 19 20 20 19 20 23 27 29 27 26 25 23 22 22 23 22 21 19 17 15 14 14 14 15 16 18 19 22 24 27 31 34 36 39 41 41 43 46 47 45 44 44 43 44 45 46 46 46 45 44 43 43 42 39 36 33 32 31 31 30 30 30 30 29 29 28 26 25 23 22 21 20 17 16 14 12 10
14 15 16 17 17 18 18 18 19 20 20 20 19 21 25 28 28 28 28 26 24 23 24 24 23 22 22 21 19 19 19 21 23 25 27 29 30 33 37 40 41 41 42 44 47 49 48 48 47 46 45 45 45 45 45 44 43 42 41 40 39 37 35 33 32 31 31 30 29 29 29 29 28 28 26 25 23 21 19 18 16 14 13 11 9
13 15 16 17 18 18 18 18 19 20 20 19 19 19 22 26 28 28 28 28 27 25 24 24 24 24 24 24 23 21 21 23 26 29 31 33 35 37 40 42 42 40 41 43 46 47 47 48 48 46 45 45 43 41 41 40 39 38 37 36 36 36 35 35 33 32 31 31 30 29 28 27 26 25 24 22 21 19 18 17 15 13 12 10 8
11 13 15 17 17 18 19 18 18 19 20 19 18 18 20 23 26 27 26 27 28 27 25 23 22 22 23 25 24 23 21 21 23 26 29 30 32 35 38 39 38 39 40 42 43 44 44 44 45 44 43 43 41 38 37 37 36 34 33 34 35 35 34 34 33 32 31 31 30 29 28 26 24 22 21 20 19 17 16 15 14 12 11 9 8
8 11 13 15 16 17 18 18 18 18 19 19 18 17 18 20 23 25 25 26 27 28 27 25 22 21 22 22 22 22 22 21 20 21 23 25 27 29 32 34 35 38 40 41 42 43 43 42 42 42 41 40 39 37 36 34 34 33 33 33 34 34 34 34 33 32 31 30 29 28 27 25 23 21 19 18 18 16 15 13 12 11 10 8 7
5 8 10 13 15 16 17 18 18 18 18 19 18 17 17 18 20 22 24 25 25 26 28 29 28 26 24 22 19 18 19 22 23 23 22 23 25 27 29 32 34 36 38 39 40 42 42 41 40 40 39 38 37 36 34 33 34 35 35 34 34 34 34 33 32 31 30 29 28 26 24 23 22 20 18 16 16 15 13 12 11 10 9 7 6
3 5 7 10 12 13 14 16 17 17 17 18 18 18 17 17 18 19 21 22 23 24 26 28 30 30 27 25 22 19 19 23 26 26 26 27 28 29 30 31 32 32 33 34 36 38 40 40 40 39 39 37 36 34 32 32 33 34 34 34 34 34 34 33 32 31 29 27 26 24 22 21 20 19 17 15 14 13 12 11 10 9 7 6 5
3 4 5 7 9 11 12 13 14 15 16 17 17 18 18 18 18 18 19 19 21 22 23 26 28 29 28 27 26 26 27 28 27 26 25 25 26 28 29 30 30 29 29 30 31 33 36 38 39 39 39 37 35 33 32 32 32 32 32 32 33 33 32 30 29 28 27 25 24 22 21 20 19 18 16 15 13 12 11 10 9 8 7 5 5
4 5 5 7 8 8 9 10 11 13 14 15 16 17 18 18 18 18 18 18 18 19 20 22 24 25 26 27 27 27 30 32 31 28 26 25 24 24 26 28 28 28 28 30 31 32 33 35 37 38 38 37 35 33 32 31 31 30 30 30 30 29 28 27 26 25 24 22 21 20 19 18 17 16 15 14 13 11 10 9 8 7 6 5 5
4 5 5 7 8 8 8 8 8 9 12 14 15 16 17 17 18 17 18 18 18 18 18 19 21 22 23 25 25 26 28 31 31 31 29 27 26 25 26 27 28 28 28 29 30 31 32 34 35 36 37 36 35 33 31 29 28 27 27 27 27 27 26 25 23 22 21 20 19 18 17 16 16 14 13 12 12 11 10 8 7 6 5 5 4
3 2 3 5 8 9 10 9 7 7 8 10 13 14 15 16 17 17 17 17 17 17 17 18 18 19 19 21 22 23 24 26 27 27 27 27 27 27 27 27 28 29 29 29 29 28 29 30 31 32 32 32 31 29 28 27 27 27 27 27 26 25 24 24 23 21 20 19 18 17 16 16 15 14 13 12 11 10 9 8 7 6 5 5 4
3 3 1 3 6 8 9 10 9 7 6 7 9 12 13 15 16 16 16 16 16 17 17 17 17 17 17 17 18 18 19 20 21 22 22 23 24 26 27 27 27 28 28 28 28 26 26 25 25 25 25 24 24 25 25 26 26 26 26 26 25 24 23 23 22 21 19 18 17 17 16 15 14 13 13 12 10 9 8 7 6 6 5 5 4
4 2 1 3 4 6 7 8 9 9 7 6 7 9 11 13 14 15 15 14 14 15 16 17 17 16 16 16 15 15 16 16 16 16 17 18 19 21 22 23 24 24 25 25 25 24 23 22 22 21 20 19 19 20 21 22 22 23 23 23 22 22 22 21 19 18 17 16 16 16 15 15 14 13 12 11 10 9 8 7 6 6 5 4 4
9 7 6 5 4 4 5 6 7 8 9 8 7 7 9 10 12 13 14 13 13 14 15 16 17 17 16 16 15 14 14 13 13 13 14 14 15 16 17 17 17 18 18 19 19 20 20 19 19 19 19 18 18 18 18 19 19 19 19 19 18 18 18 17 16 16 16 15 15 14 14 14 14 13 11 11 10 9 8 7 6 5 5 4 3
11 12 12 10 6 4 5 6 6 6 8 10 10 9 9 10 11 12 12 12 12 13 13 14 15 16 16 16 16 15 14 13 13 12 12 12 13 13 14 14 15 14 14 14 15 15 16 17 18 18 18 18 18 18 18 19 19 18 18 18 17 17 17 16 15 15 15 15 14 13 13 13 13 12 11 10 9 8 7 6 6 5 4 3 2
11 11 12 12 11 10 9 8 6 5 6 10 12 11 10 10 11 11 11 11 11 12 12 13 13 14 14 14 15 15 15 14 14 13 13 12 12 11 11 12 13 14 15 15 15 15 16 16 16 16 16 17 17 18 18 19 19 19 19 19 18 17 17 16 16 15 15 15 14 14 13 13 12 12 11 10 8 7 7 6 5 4 4 3 2
13 12 11 12 13 13 13 11 8 5 7 10 13 13 12 11 11 10 10 10 10 10 11 11 11 12 12 13 13 13 13 13 13 13 13 12 12 11 11 11 11 12 13 14 15 16 16 16 15 15 14 15 15 16 17 19 19 20 19 19 19 18 18 17 17 16 16 16 15 15 14 13 12 11 10 9 8 7 7 6 5 4 4 3 3
17 15 13 12 12 13 13 12 9 6 7 11 13 13 12 11 11 11 10 10 10 10 10 10 10 10 11 11 11 11 11 11 11 11 12 12 12 11 11 11 10 10 11 12 13 14 14 15 15 14 14 14 14 14 15 16 18 19 19 19 19 19 19 18 18 17 16 16 15 15 14 14 13 12 11 10 9 8 7 6 5 4 4 3 3
17 16 15 14 13 13 12 12 11 8 6 11 14 14 11 11 11 11 10 10 10 10 9 9 10 10 10 10 10 10 10 10 10 10 11 11 11 11 11 11 10 10 10 10 10 10 11 12 13 13 13 13 13 14 14 14 15 16 17 18 18 18 19 19 18 18 16 16 15 14 14 13 13 12 11 10 9 8 7 6 5 4 4 3 3
Wind_Direction
275 286 297 306 312 315 317 317 316 315 315 314 313 312 311 308 305 303 300 299 298 297 293 289 286 283 282 280 277 275 271 265 258 253 253 254 249 241 233 230 231 233 233 233 234 233 231 231 232 230 229 226 226 229 230 232 232 229 229 229 227 228 227 223 220 214 214 219 217 216 217 217 218 223 225 218 211 210 214 219 223 228 234 239 245
276 287 299 306 311 314 315 315 314 314 313 312 312 311 309 306 304 302 300 299 298 297 294 291 287 284 281 280 279 276 272 266 260 254 251 252 251 246 237 231 230 231 232 232 233 233 231 230 231 231 230 227 225 227 228 229 229 226 227 228 227 228 229 224 220 218 221 220 216 214 216 219 221 222 223 220 214 211 214 219 223 226 232 238 244
280 292 301 307 311 313 313 313 313 313 312 311 310 309 306 303 302 300 299 298 297 295 294 292 289 286 283 281 279 277 274 268 261 255 251 249 249 246 240 234 232 230 230 231 233 233 232 230 228 228 227 225 224 224 225 227 228 225 225 227 226 226 228 226 222 221 223 222 217 214 214 216 220 222 221 218 215 214 215 219 223 226 231 237 241
284 296 303 308 311 311 311 312 312 311 310 308 307 305 302 301 301 301 299 299 297 295 294 292 290 287 285 283 280 278 275 271 265 258 252 247 245 244 240 237 235 233 230 230 231 231 231 230 228 225 224 223 223 222 221 224 227 225 225 227 226 226 227 226 224 225 226 224 219 216 214 214 215 218 219 216 212 213 216 219 222 226 231 236 239
289 299 305 308 309 310 311 312 311 310 307 304 302 301 300 299 300 300 299 298 297 295 293 290 288 285 283 283 281 278 276 272 267 261 254 247 243 242 241 239 237 236 233 230 229 229 230 230 229 225 223 222 221 220 218 220 225 226 225 226 226 228 228 224 225 229 231 228 223 217 214 212 211 211 214 215 211 211 214 218 222 227 232 236 240
293 301 307 309 310 311 313 312 310 308 304 301 300 299 300 300 300 299 297 295 294 292 290 288 286 284 282 281 279 276 275 272 268 263 256 248 243 241 242 242 239 238 236 233 229 228 229 230 230 227 224 222 221 220 218 221 225 224 224 226 228 230 227 222 224 228 229 229 226 222 217 215 213 211 212 214 215 214 214 215 219 225 231 236 240
296 304 309 310 312 313 313 312 309 306 303 302 302 301 300 300 299 298 296 293 290 288 287 287 286 284 282 279 277 274 271 269 266 263 258 250 244 241 242 242 240 237 236 235 232 229 228 229 230 228 226 225 224 221 219 222 224 224 226 227 228 228 226 224 225 226 226 225 225 223 220 217 215 214 212 212 215 219 220 220 219 222 228 234 239
301 308 310 310 313 313 313 312 309 307 306 305 305 304 302 300 298 296 295 291 287 285 284 285 285 284 281 278 276 272 268 265 263 261 259 253 245 240 239 240 240 239 236 234 234 231 227 227 229 229 227 226 225 224 221 222 223 223 224 225 225 227 227 225 225 225 225 225 224 222 217 213 212 212 211 211 212 216 221 225 226 228 230 233 236
308 311 310 311 313 312 313 315 313 311 311 310 310 308 304 302 299 295 292 289 286 284 285 284 281 280 279 277 275 271 266 263 261 259 258 254 247 240 237 237 239 241 237 232 233 233 229 226 227 229 229 227 227 225 224 225 224 222 223 222 222 226 227 225 224 225 224 222 222 220 213 209 211 213 213 215 217 218 220 222 225 229 232 233 235
312 311 312 313 313 314 318 321 319 315 314 314 314 313 309 305 301 297 292 288 287 288 288 285 282 280 278 275 272 269 265 262 261 259 256 253 247 239 236 236 238 240 237 231 231 232 230 227 225 228 231 229 228 227 226 227 227 226 226 224 222 224 226 225 224 225 225 223 223 222 216 212 216 221 223 223 223 222 222 221 221 224 226 229 232
313 313 314 315 316 318 322 323 320 316 315 316 316 315 312 306 301 298 295 291 290 291 289 287 286 284 281 274 268 266 264 261 259 258 256 253 247 239 235 236 237 237 235 232 230 230 229 226 223 226 230 229 228 228 227 228 229 229 229 229 228 228 228 226 225 225 227 227 227 227 223 221 225 227 225 225 223 224 225 223 223 224 225 227 230
316 316 316 316 319 321 322 321 319 318 319 320 318 316 313 308 303 301 299 296 293 290 288 288 287 285 281 274 267 264 263 260 257 255 254 252 249 241 233 233 235 234 232 230 229 228 227 224 221 223 228 228 226 227 227 228 229 229 228 230 232 234 234 233 231 229 229 228 228 231 231 230 231 228 225 225 224 222 222 223 225 227 228 229 231
319 318 318 319 321 322 322 322 322 322 323 322 320 318 316 313 310 306 302 298 292 288 288 287 284 282 279 273 268 264 263 260 255 252 250 249 248 242 231 228 231 232 230 228 227 227 226 223 221 222 225 226 225 225 225 226 226 225 226 229 232 234 238 240 239 238 238 236 235 240 240 237 234 232 229 228 224 219 217 222 224 224 226 228 231
321 319 320 322 324 324 324 325 325 326 327 326 323 321 320 318 314 308 302 298 294 292 292 288 283 280 277 273 267 262 261 258 252 249 247 245 243 239 230 225 227 230 229 226 224 225 225 224 223 223 223 224 223 223 223 223 221 219 221 226 228 230 235 240 241 243 245 246 248 250 250 245 240 235 230 228 226 224 224 225 222 219 221 224 229
322 321 323 326 327 327 326 327 328 330 332 332 328 324 321 318 315 311 305 300 298 297 295 290 284 280 277 272 265 259 259 257 251 247 245 241 237 234 228 225 225 227 228 225 222 222 223 224 225 224 222 222 223 222 223 223 220 216 218 222 224 226 230 233 235 238 242 247 251 252 250 247 241 234 229 227 227 228 230 228 223 219 218 221 226
323 323 327 329 328 330 331 331 333 335 338 338 333 328 323 320 317 312 307 303 302 300 297 292 286 280 276 269 262 258 258 255 250 247 243 236 234 232 226 224 223 224 226 223 218 218 220 223 225 225 222 222 223 222 223 225 222 217 216 220 221 222 225 228 230 233 237 242 245 245 245 245 238 230 226 225 223 222 221 220 218 217 217 220 224
324 323 326 325 329 337 339 337 337 339 342 342 337 332 326 322 318 314 309 307 305 302 300 297 291 283 276 268 261 259 256 249 246 244 238 231 231 230 225 223 222 222 223 221 215 216 221 224 225 226 224 223 223 223 224 225 222 217 216 219 220 220 223 225 226 227 230 234 237 238 240 241 235 227 225 226 224 220 214 208 209 213 216 219 224
324 322 319 320 331 340 341 338 338 341 345 346 340 334 329 324 320 316 312 308 305 303 301 299 295 289 280 270 262 257 252 244 239 238 232 227 229 229 225 221 220 220 222 221 216 217 223 225 225 226 224 223 223 224 224 225 225 222 221 222 221 220 222 223 222 221 222 224 227 229 230 230 228 224 222 219 215 213 211 210 212 213 215 220 225
323 319 314 320 334 341 337 334 337 342 347 348 343 336 330 324 320 317 312 308 307 308 304 298 296 293 284 270 257 250 245 237 230 231 230 228 229 230 225 219 216 218 221 220 218 219 223 225 226 225 223 221 222 224 226 226 225 224 223 222 220 218 218 219 220 220 220 218 218 220 220 218 216 212 206 200 198 200 203 209 215 216 217 222 225
323 317 313 322 336 342 337 333 337 341 346 348 344 337 330 325 323 319 313 309 311 312 307 299 296 293 282 261 246 241 240 231 224 226 229 229 228 226 221 215 214 217 219 219 219 220 222 224 225 224 222 220 220 224 226 227 225 223 222 222 219 216 215 216 218 220 220 216 213 212 210 204 198 194 190 187 189 191 193 198 204 209 214 218 220
326 318 317 325 335 341 339 337 339 341 343 345 344 339 332 329 327 322 314 311 314 314 308 300 295 289 274 252 238 235 235 229 224 226 228 226 221 216 213 212 214 217 218 217 218 221 222 222 222 223 223 222 223 224 225 225 224 222 221 221 219 218 218 217 218 218 214 209 205 199 194 189 185 184 184 184 186 190 193 196 198 200 205 209 212
332 323 323 330 334 338 338 339 340 339 340 344 344 341 337 335 333 328 319 313 314 314 308 300 294 286 272 255 242 236 232 229 229 231 226 217 210 208 209 213 216 217 217 217 218 220 222 222 221 223 224 223 221 220 219 218 218 217 217 217 217 220 224 221 215 210 205 200 194 186 183 182 180 180 183 184 186 189 192 195 198 202 205 206 206
340 332 332 337 337 336 336 337 338 337 337 342 344 342 341 342 340 337 328 318 316 318 310 300 293 281 266 255 246 237 230 228 230 229 218 208 206 207 212 219 221 218 216 217 218 220 222 222 221 222 221 217 214 212 211 210 210 209 210 212 213 218 222 218 210 202 196 191 186 182 181 181 179 179 181 182 184 186 188 191 194 197 200 202 202
346 342 344 345 340 339 339 336 336 337 337 340 344 345 346 347 347 346 337 324 319 323 314 301 293 281 266 254 240 230 227 227 226 225 217 208 206 209 215 224 226 220 216 217 219 221 221 220 219 218 214 208 206 208 208 207 206 205 207 211 213 213 212 206 198 192 186 182 182 182 180 179 179 179 180 180 182 183 185 186 187 187 190 193 196
352 350 351 349 344 344 343 338 337 340 339 341 346 349 352 352 353 353 347 333 323 326 322 306 293 282 270 260 245 232 229 228 223 220 215 209 206 208 214 221 222 218 215 216 220 222 222 220 216 211 205 200 201 204 205 206 206 205 210 215 214 209 202 193 185 182 180 179 181 181 177 175 177 178 178 179 180 180 180 180 179 181 184 187 188
357 355 353 352 348 346 345 342 342 344 343 345 350 355 358 358 358 357 354 345 334 331 329 313 294 277 262 256 248 236 228 221 213 207 204 201 201 203 209 214 213 211 212 215 216 217 216 214 207 200 196 198 202 203 203 205 206 205 207 209 206 200 196 189 182 179 179 178 177 176 172 170 171 172 173 173 172 171 172 174 176 178 180 181 180
3 1 357 356 354 351 349 346 346 348 348 349 353 359 2 4 4 4 1 354 346 342 340 328 307 280 253 236 227 221 215 206 198 193 190 191 193 196 203 207 205 204 206 210 211 209 206 202 197 192 192 196 199 200 199 198 197 194 194 195 193 190 188 188 185 182 179 176 172 170 167 165 166 167 166 165 164 163 167 174 177 175 172 171 170
13 10 4 1 360 357 355 353 352 352 353 354 358 1 5 9 11 11 9 3 356 354 356 351 339 315 262 213 191 191 193 189 187 185 185 187 189 192 198 202 201 201 203 204 203 201 198 194 191 189 189 189 187 185 184 184 183 182 183 184 184 182 182 185 184 180 177 174 170 166 164 163 164 163 161 161 162 163 165 169 171 168 163 161 160
20 16 11 7 5 3 2 2 360 358 358 1 4 4 8 14 16 15 15 13 9 9 12 10 2 349 300 207 182 179 179 178 179 182 183 186 190 194 197 198 199 203 205 204 200 195 190 187 185 183 182 180 177 174 174 174 174 174 177 179 180 179 179 181 179 177 174 172 168 165 163 162 160 159 159 161 163 163 162 161 161 159 155 153 153
28 22 17 12 8 9 10 9 7 5 4 6 8 9 11 16 20 20 19 20 20 23 32 35 31 28 54 150 171 175 175 175 177 181 183 185 189 194 196 198 200 202 202 203 201 193 184 179 175 174 175 175 173 172 173 173 172 171 173 176 177 175 175 176 176 173 171 168 166 164 162 160 158 159 162 163 161 157 154 152 152 150 147 146 148
37 30 24 18 15 16 16 13 13 13 11 9 11 13 15 17 23 26 25 27 31 38 47 52 52 56 74 98 128 151 162 167 172 179 183 183 186 191 192 194 198 197 195 195 190 182 178 173 167 166 168 169 169 171 171 171 171 170 170 171 172 172 172 172 171 167 164 163 162 160 159 159 160 161 162 161 156 150 146 146 146 144 141 141 140
46 39 32 27 24 24 23 20 19 18 17 15 14 17 19 20 25 30 32 34 39 45 54 60 62 63 71 85 104 120 134 151 164 172 177 177 179 180 179 180 182 182 184 186 179 171 169 169 164 163 164 165 166 167 168 167 167 168 168 168 169 169 170 169 166 162 160 159 158 157 158 160 160 158 156 154 150 146 144 143 142 141 140 139 139
56 50 42 36 32 31 28 26 25 22 22 22 19 19 22 23 25 31 37 41 45 50 57 63 68 72 75 81 94 108 120 132 142 150 157 162 164 164 162 163 165 166 171 176 171 164 162 163 163 163 164 164 164 164 164 165 165 166 166 166 165 166 166 164 160 158 157 156 156 156 157 158 155 150 147 146 145 144 142 142 141 141 142 143 143
63 59 53 46 39 36 34 31 30 28 26 26 24 22 23 25 26 31 37 41 45 50 55 59 67 76 81 85 92 103 115 121 125 130 137 143 149 154 155 155 155 158 164 168 165 160 157 157 159 160 160 161 162 162 161 162 163 163 163 162 163 163 161 158 157 156 155 155 156 156 156 154 151 148 145 145 144 144 143 143 144 146 147 146 142
66 62 60 55 47 42 40 37 35 33 30 29 29 26 25 26 29 33 38 43 46 48 50 52 58 69 81 88 90 94 103 112 118 124 130 135 141 148 151 150 149 152 157 158 159 159 158 155 155 156 156 156 157 159 159 159 159 159 159 159 161 161 158 156 156 156 155 156 156 155 152 150 148 147 146 145 145 145 146 146 147 147 146 142 136
66 63 62 60 54 48 45 41 40 38 34 32 33 31 28 29 31 33 38 45 50 52 53 54 56 63 74 83 88 92 96 101 110 118 122 129 138 145 146 145 146 150 151 149 150 155 156 153 151 151 152 152 153 156 157 156 154 155 157 159 160 159 157 155 155 155 155 155 153 151 148 146 145 145 145 145 147 148 148 148 148 147 143 137 133
65 62 61 60 57 52 48 44 42 42 39 35 35 35 34 34 34 36 37 42 49 55 59 61 62 61 63 68 76 87 94 98 104 112 118 126 135 139 139 139 142 146 145 144 145 147 147 147 147 149 150 151 152 153 155 154 153 154 157 159 159 157 155 155 155 155 155 153 151 149 148 146 146 146 148 150 151 151 149 148 147 144 140 136 132
55 56 57 58 56 53 51 47 44 44 45 40 37 38 41 40 39 40 41 41 45 53 59 63 63 62 61 60 64 76 91 99 101 104 112 121 127 129 131 135 139 141 141 142 144 145 145 146 148 149 151 151 150 150 152 153 154 156 158 159 159 157 156 156 156 155 155 153 151 150 149 148 148 150 152 153 152 150 148 147 145 141 138 134 132
9 32 44 51 49 48 50 49 46 44 47 46 42 41 43 45 45 44 45 44 44 49 57 63 65 64 64 67 70 78 90 95 95 97 102 108 113 117 122 125 128 131 134 138 141 142 142 144 145 146 146 145 145 146 150 154 157 158 159 159 159 157 157 158 157 156 156 154 152 151 151 150 151 152 153 153 151 148 147 146 145 141 137 133 134
296 342 12 31 37 39 43 47 47 45 45 48 48 45 44 47 49 49 50 50 49 48 52 60 64 65 65 67 72 78 84 85 86 90 97 102 107 113 115 116 117 120 124 128 132 135 138 140 142 142 142 142 143 147 152 156 157 158 159 160 160 159 159 159 158 158 158 157 155 153 153 154 155 154 153 152 151 150 150 149 146 143 139 138 141
279 306 334 356 10 21 28 34 43 46 44 44 48 49 47 47 50 52 54 56 56 53 52 55 61 65 66 67 70 76 82 84 84 85 88 94 101 110 114 117 120 122 123 124 128 131 135 140 143 144 144 144 146 149 153 156 158 158 160 161 161 160 159 159 160 160 160 159 158 157 156 158 158 157 154 153 153 154 154 152 149 148 147 146 142
272 288 315 339 352 3 12 19 27 38 43 44 44 47 49 50 50 52 55 58 61 62 61 59 59 61 64 66 69 72 78 82 83 84 85 88 92 98 104 109 113 116 118 121 124 128 132 137 141 144 145 145 147 149 152 156 159 161 162 161 161 161 160 161 163 165 164 163 162 161 161 161 160 158 155 155 155 156 157 156 155 155 154 147 139
216 246 322 348 357 5 16 23 22 23 36 43 44 44 48 51 53 53 54 56 60 64 68 68 67 65 65 66 68 70 74 79 82 83 85 86 89 92 95 99 102 104 107 110 114 119 124 129 134 138 141 144 146 150 155 159 162 164 163 162 162 164 166 168 170 170 169 168 166 165 166 166 163 160 159 159 160 160 159 158 158 159 155 147 139
153 136 64 6 7 13 24 35 37 34 34 40 45 47 48 51 54 55 56 57 60 63 68 73 76 76 75 73 73 74 76 80 83 85 86 87 88 91 93 96 98 100 102 103 105 109 113 117 123 128 134 140 148 153 158 161 162 162 163 163 165 169 174 176 175 173 172 171 170 170 171 169 166 164 162 162 162 161 159 159 161 162 156 147 139
80 107 336 336 357 18 32 37 42 50 53 48 48 53 54 54 56 57 58 61 64 66 70 73 76 80 83 83 83 83 84 86 89 91 93 94 94 94 95 97 99 101 102 103 104 106 108 111 115 120 126 133 142 150 157 161 163 165 167 169 172 175 177 177 175 174 174 176 176 176 175 171 168 167 166 163 162 161 160 162 166 164 156 144 135
42 36 28 13 353 2 28 31 36 54 69 71 68 65 63 63 62 60 59 62 67 71 76 78 79 80 82 84 86 88 88 89 91 92 95 99 103 104 104 104 104 105 107 108 110 112 114 117 121 124 129 134 140 146 153 158 162 166 170 173 175 176 175 173 172 174 177 179 181 181 178 172 170 169 168 165 163 163 163 166 170 166 155 145 137
33 33 37 37 29 26 36 33 31 48 74 86 88 82 75 75 74 69 63 63 66 72 78 83 85 86 86 85 86 87 87 87 88 88 88 92 98 106 114 118 118 118 120 122 124 125 127 130 132 133 136 140 143 147 152 156 159 163 167 170 174 176 174 172 173 175 176 179 181 181 178 175 174 173 171 168 165 165 167 172 175 170 158 149 148
34 33 35 39 44 46 44 38 35 53 84 95 98 94 87 85 85 81 74 70 70 72 75 78 82 87 89 90 89 89 87 86 86 86 86 88 91 98 110 123 131 134 135 135 136 138 139 140 141 142 144 147 150 153 156 159 161 164 166 169 173 177 178 177 176 176 176 178 180 178 177 178 178 177 173 169 168 171 176 178 179 175 164 159 165
40 39 39 39 43 45 42 36 36 60 96 104 106 104 98 93 93 94 90 84 77 75 76 78 80 83 86 90 92 92 91 89 87 86 88 91 93 95 101 111 124 137 144 146 147 148 148 148 149 149 150 153 156 158 160 162 163 165 166 169 172 175 177 179 179 179 178 179 179 178 177 179 180 179 177 175 176 180 183 183 181 176 169 168 173
40 41 41 42 43 44 43 37 34 54 105 115 113 110 107 104 101 101 101 99 91 83 79 81 83 84 86 89 90 90 90 89 88 87 88 91 95 99 104 107 114 125 137 147 153 156 158 159 159 159 158 158 160 162 164 166 167 168 170 172 173 175 177 178 179 179 180 181 181 180 180 181 182 182 183 184 185 185 185 184 181 176 172 173 172
42 40 40 41 43 46 46 43 40 47 99 125 123 118 116 115 112 109 106 106 106 103 97 92 87 86 87 90 89 86 84 82 81 82 85 88 92 97 103 109 114 119 127 139 149 158 164 167 170 171 169 167 166 165 166 168 170 172 174 175 175 177 178 179 179 180 181 181 183 183 183 184 187 188 188 189 189 187 187 186 180 174 175 176 167